CW1767 Weather Reports


Display with metric or nautical units.
time (UTC)temp
F
wind
direction
speed
MPH
gust
MPH
rain 1hr
in
rain 24hr
in
rain mn
in
humidity
%
barometer
mb
20260902053012 77 73 3.0 10.0 0.00 0.00 0.00 84 1016.8
20260902051509 77 80 0.0 2.0 0.00 0.00 0.00 84 1015.9
20260902050011 77 69 0.0 1.0 0.00 0.00 0.00 84 1015.7
20260902044505 78 69 0.0 0.0 0.00 0.00 0.00 83 1015.6
20260902043005 79 72 0.0 1.0 0.00 0.00 0.00 81 1015.7
20260902041501 79 72 0.0 1.0 0.00 0.00 0.00 80 1015.5
20260902040059 80 72 0.0 4.0 0.00 0.00 0.00 79 1015.7
20260902034601 81 350 1.0 14.0 0.00 0.00 0.00 83 1016.0
20260902033057 78 34 1.0 4.0 0.00 0.00 0.00 91 1015.6
20260902031601 78 186 0.0 0.0 0.00 0.00 0.00 91 1014.5
20260902024601 78 186 0.0 0.0 0.00 0.00 0.00 90 1014.5
20260902023057 78 186 0.0 0.0 0.00 0.00 0.00 89 1014.3
20260902021559 79 186 0.0 0.0 0.00 0.00 0.00 89 1014.4
20260902020054 79 186 0.0 0.0 0.00 0.00 0.00 88 1014.6
20260902014554 79 186 0.0 0.0 0.00 0.00 0.00 88 1014.3
20260902013104 79 186 0.0 0.0 0.00 0.00 0.00 88 1013.9
20260902011554 79 186 0.0 0.0 0.00 0.00 0.00 87 1014.1
20260902010059 80 186 0.0 0.0 0.00 0.00 0.00 86 1014.0
20260902004552 80 186 0.0 0.0 0.00 0.00 0.00 85 1013.7
20260902003052 81 186 0.0 0.0 0.00 0.00 0.00 83 1013.2
20260902001553 81 186 0.0 0.0 0.00 0.00 0.00 82 1013.2
20260902000050 82 186 0.0 0.0 0.00 0.00 0.00 82 1013.4
20260901234552 83 186 0.0 0.0 0.00 0.00 0.00 81 1013.5
20260901233050 83 186 0.0 0.0 0.00 0.00 0.00 80 1013.4
20260901231556 84 186 0.0 0.0 0.00 0.00 0.00 79 1013.4
20260901224545 86 186 0.0 0.0 0.00 0.09 0.00 74 1013.7
20260901223044 87 186 0.0 0.0 0.00 0.09 0.00 72 1013.8
20260901221548 87 186 0.0 0.0 0.00 0.09 0.00 72 1013.9
20260901220042 87 188 0.0 1.0 0.00 0.09 0.00 73 1013.9
20260901214542 87 126 0.0 1.0 0.00 0.09 0.00 71 1014.1
20260901213041 87 155 0.0 1.0 0.00 0.09 0.00 71 1014.1
20260901211541 87 186 0.0 2.0 0.00 0.09 0.00 70 1014.0
20260901210039 87 313 0.0 1.0 0.00 0.09 0.00 72 1014.2
20260901204541 87 124 0.0 0.0 0.00 0.44 0.00 73 1014.2
20260901203044 88 124 0.0 1.0 0.00 0.44 0.00 72 1014.3
20260901201540 88 123 0.0 0.0 0.00 0.44 0.00 70 1014.5
20260901200036 88 171 0.0 0.0 0.00 0.44 0.00 69 1014.5
20260901194535 89 162 0.0 1.0 0.00 0.44 0.00 69 1014.5
20260901193035 90 185 0.0 1.0 0.00 0.44 0.00 70 1014.7
20260901191541 91 129 0.0 1.0 0.00 0.44 0.00 67 1014.6
20260901190037 91 267 0.0 2.0 0.00 0.44 0.00 63 1014.6
20260901184532 92 184 0.0 1.0 0.00 0.44 0.00 62 1014.7
20260901183055 92 205 0.0 2.0 0.00 0.44 0.00 65 1014.7
20260901181530 92 216 0.0 1.0 0.00 0.44 0.00 64 1014.8
20260901180029 92 259 0.0 1.0 0.00 0.44 0.00 62 1014.9
20260901174526 92 236 0.0 1.0 0.00 0.44 0.00 66 1014.9
20260901173027 91 150 0.0 1.0 0.00 0.44 0.00 65 1014.8
20260901171520 91 276 0.0 4.0 0.00 0.44 0.00 66 1015.1
20260901170036 90 256 0.0 2.0 0.00 0.44 0.00 66 1015.4
20260901164516 90 271 0.0 2.0 0.00 0.44 0.00 68 1015.6
20260901163013 89 243 0.0 2.0 0.00 0.44 0.00 69 1015.6
20260901161509 88 259 0.0 3.0 0.00 0.44 0.00 74 1015.7
20260901160010 86 180 0.0 1.0 0.00 0.44 0.00 75 1015.8
20260901154503 85 230 0.0 1.0 0.00 0.44 0.00 76 1015.9
20260901153001 85 162 0.0 1.0 0.00 0.44 0.00 79 1016.0
20260901151601 84 188 0.0 1.0 0.00 0.44 0.00 80 1016.4
20260901150056 83 268 0.0 2.0 0.00 0.44 0.00 83 1016.5
20260901144551 82 250 0.0 1.0 0.00 0.44 0.00 86 1016.4
20260901143049 80 20 0.0 1.0 0.00 0.44 0.00 89 1016.6
20260901141547 79 241 0.0 1.0 0.00 0.44 0.00 90 1016.6
20260901140041 78 261 0.0 0.0 0.00 0.44 0.00 93 1016.6
20260901134539 78 267 0.0 1.0 0.00 0.44 0.00 94 1016.6
20260901133044 77 150 0.0 1.0 0.00 0.44 0.00 95 1016.6
20260901131540 76 239 0.0 0.0 0.00 0.44 0.00 96 1016.7
20260901130033 76 253 0.0 1.0 0.00 0.44 0.00 96 1016.7
20260901124533 76 154 0.0 0.0 0.00 0.44 0.00 96 1016.7
20260901123037 76 149 0.0 0.0 0.00 0.44 0.00 96 1016.9
20260901121530 75 149 0.0 0.0 0.00 0.44 0.00 96 1016.9
20260901120026 75 149 0.0 0.0 0.00 0.44 0.00 96 1016.9
20260901114525 74 149 0.0 0.0 0.00 0.44 0.00 96 1017.0
20260901113019 73 149 0.0 0.0 0.00 0.44 0.00 96 1016.8
20260901111516 72 149 0.0 0.0 0.00 0.44 0.00 96 1016.3
20260901110015 72 149 0.0 0.0 0.00 0.44 0.00 95 1016.4
20260901104515 72 149 0.0 0.0 0.00 0.44 0.00 95 1016.4
20260901103013 72 149 0.0 0.0 0.00 0.44 0.00 95 1016.3
20260901101514 72 149 0.0 0.0 0.00 0.44 0.00 95 1016.5
20260901100014 73 149 0.0 0.0 0.00 0.44 0.00 95 1016.4
20260901094508 73 149 0.0 0.0 0.00 0.44 0.00 95 1016.3
20260901093003 73 149 0.0 0.0 0.00 0.44 0.00 95 1016.3
20260901091606 73 149 0.0 0.0 0.00 0.44 0.00 95 1016.2
20260901090101 73 149 0.0 0.0 0.00 0.44 0.00 95 1016.2
20260901084609 73 149 0.0 0.0 0.00 0.44 0.00 95 1016.3
20260901083047 73 149 0.0 0.0 0.00 0.44 0.00 95 1016.4
20260901081543 73 149 0.0 0.0 0.00 0.44 0.00 95 1016.4
20260901080050 73 149 0.0 0.0 0.00 0.44 0.00 95 1016.3
20260901074538 72 149 0.0 0.0 0.00 0.44 0.00 95 1016.4
20260901073046 72 149 0.0 0.0 0.00 0.44 0.00 95 1016.4
20260901071537 72 149 0.0 0.0 0.00 0.44 0.00 95 1016.6
20260901070033 73 149 0.0 0.0 0.00 0.44 0.00 95 1016.6
20260901064529 73 149 0.0 0.0 0.00 0.44 0.00 95 1016.7
20260901063026 73 149 0.0 0.0 0.00 0.44 0.00 95 1016.7
20260901061521 73 149 0.0 0.0 0.00 0.44 0.00 95 1017.0
20260901060033 73 149 0.0 0.0 0.00 0.44 0.00 95 1017.2
20260901054514 73 149 0.0 0.0 0.00 0.44 0.00 95 1017.2